date,City,No. Stations,Air Quality,Index Value,Prominent Pollutant
2016-07-12,Tirupati,1.0,Good,47,PM10
2016-07-13,Tirupati,1.0,Satisfactory,54,NO2
2016-07-14,Tirupati,1.0,Satisfactory,54,NO2
2016-07-15,Tirupati,1.0,Satisfactory,58,NO2
2016-07-16,Tirupati,1.0,Good,49,PM10
2016-07-17,Tirupati,1.0,Satisfactory,67,NO2
2016-07-18,Tirupati,1.0,Satisfactory,59,NO2
2016-07-19,Tirupati,1.0,Satisfactory,55,NO2
2016-07-20,Tirupati,1.0,Satisfactory,59,NO2
2016-07-26,Tirupati,1.0,Satisfactory,69,NO2
2016-07-27,Tirupati,1.0,Satisfactory,65,NO2
2016-07-28,Tirupati,1.0,Satisfactory,75,NO2
2016-07-29,Tirupati,1.0,Satisfactory,65,NO2
2016-07-30,Tirupati,1.0,Satisfactory,55,NO2
2016-07-31,Tirupati,1.0,Good,50,NO2
2016-08-01,Tirupati,1.0,Good,46,NO2
2016-08-02,Tirupati,1.0,Good,46,PM10
2016-08-03,Tirupati,1.0,Good,42,NO2
2016-08-05,Tirupati,1.0,Good,43,NO2
2016-08-06,Tirupati,1.0,Good,48,NO2
2016-08-07,Tirupati,1.0,Satisfactory,54,NO2
2016-08-08,Tirupati,1.0,Satisfactory,62,NO2
2016-08-09,Tirupati,1.0,Satisfactory,57,NO2
2016-08-10,Tirupati,1.0,Satisfactory,59,NO2
2016-08-11,Tirupati,1.0,Satisfactory,61,NO2
2016-08-12,Tirupati,1.0,Satisfactory,62,NO2
2016-08-13,Tirupati,1.0,Satisfactory,67,NO2
2016-08-14,Tirupati,1.0,Satisfactory,63,NO2
2016-08-15,Tirupati,1.0,Satisfactory,66,PM10
2016-08-16,Tirupati,1.0,Satisfactory,59,NO2
2016-08-17,Tirupati,1.0,Satisfactory,67,NO2
2016-08-18,Tirupati,1.0,Satisfactory,61,NO2
2016-08-19,Tirupati,1.0,Satisfactory,62,NO2
2016-08-20,Tirupati,1.0,Satisfactory,65,NO2
2016-08-21,Tirupati,1.0,Satisfactory,72,NO2
2016-08-22,Tirupati,1.0,Satisfactory,67,NO2
2016-08-23,Tirupati,1.0,Satisfactory,67,NO2
2016-08-24,Tirupati,1.0,Satisfactory,52,NO2
2016-08-25,Tirupati,1.0,Satisfactory,62,NO2
2016-08-26,Tirupati,1.0,Satisfactory,62,NO2
2016-08-27,Tirupati,1.0,Satisfactory,60,PM10
2016-08-28,Tirupati,1.0,Satisfactory,56,NO2
2016-08-29,Tirupati,1.0,Satisfactory,58,NO2
2016-08-30,Tirupati,1.0,Satisfactory,58,NO2
2016-08-31,Tirupati,1.0,Satisfactory,60,NO2
2016-09-01,Tirupati,1.0,Satisfactory,57,NO2
2016-09-09,Tirupati,1.0,Satisfactory,75,NO2
2016-09-10,Tirupati,1.0,Satisfactory,77,NO2
2016-09-11,Tirupati,1.0,Satisfactory,73,NO2
2016-09-12,Tirupati,1.0,Satisfactory,60,NO2
2016-09-13,Tirupati,1.0,Satisfactory,60,NO2
2016-09-14,Tirupati,1.0,Satisfactory,61,NO2
2016-09-15,Tirupati,1.0,Satisfactory,63,NO2
2016-09-16,Tirupati,1.0,Satisfactory,60,NO2
2016-09-17,Tirupati,1.0,Satisfactory,58,NO2
2016-09-18,Tirupati,1.0,Satisfactory,61,NO2
2016-09-19,Tirupati,1.0,Satisfactory,61,NO2
2016-09-20,Tirupati,1.0,Satisfactory,60,NO2
2016-09-21,Tirupati,1.0,Good,50,NO2
2016-09-22,Tirupati,1.0,Good,48,NO2
2016-09-23,Tirupati,1.0,Satisfactory,52,NO2
2016-09-24,Tirupati,1.0,Good,49,NO2
2016-09-25,Tirupati,1.0,Good,50,NO2
2016-09-26,Tirupati,1.0,Satisfactory,63,NO2
2016-09-27,Tirupati,1.0,Satisfactory,71,NO2
2016-09-28,Tirupati,1.0,Satisfactory,62,NO2
2016-09-29,Tirupati,1.0,Satisfactory,66,NO2
2016-09-30,Tirupati,1.0,Satisfactory,67,PM10
2016-10-01,Tirupati,1.0,Satisfactory,66,NO2
2016-10-02,Tirupati,1.0,Satisfactory,80,NO2
2016-10-03,Tirupati,1.0,Satisfactory,85,NO2
2016-10-04,Tirupati,1.0,Satisfactory,84,NO2
2016-10-05,Tirupati,1.0,Satisfactory,79,NO2
2016-10-06,Tirupati,1.0,Satisfactory,77,NO2
2016-10-07,Tirupati,1.0,Satisfactory,77,NO2
2016-10-08,Tirupati,1.0,Satisfactory,85,NO2
2016-10-09,Tirupati,1.0,Satisfactory,83,NO2
2016-10-10,Tirupati,1.0,Satisfactory,73,NO2
2016-10-11,Tirupati,1.0,Satisfactory,82,NO2
2016-10-12,Tirupati,1.0,Satisfactory,98,NO2
2016-10-13,Tirupati,1.0,Moderate,101,PM10
2016-10-14,Tirupati,1.0,Moderate,107,NO2
2016-10-15,Tirupati,1.0,Moderate,111,NO2
2016-10-16,Tirupati,1.0,Moderate,134,NO2
2016-10-17,Tirupati,1.0,Moderate,126,NO2
2016-10-18,Tirupati,1.0,Moderate,122,NO2
2016-10-19,Tirupati,1.0,Moderate,122,NO2
2016-10-20,Tirupati,1.0,Moderate,121,NO2
2016-10-21,Tirupati,1.0,Moderate,126,NO2
2016-10-22,Tirupati,1.0,Moderate,133,NO2
2016-10-23,Tirupati,1.0,Moderate,136,NO2
2016-10-24,Tirupati,1.0,Moderate,133,NO2
2016-10-25,Tirupati,1.0,Moderate,114,NO2
2016-10-26,Tirupati,1.0,Moderate,114,NO2
2016-10-27,Tirupati,1.0,Moderate,122,NO2
2016-10-28,Tirupati,1.0,Moderate,126,NO2
2016-10-30,Tirupati,1.0,Moderate,108,NO2
2016-10-31,Tirupati,1.0,Moderate,101,NO2
2016-11-01,Tirupati,1.0,Satisfactory,88,NO2
2016-11-02,Tirupati,1.0,Satisfactory,96,NO2
2016-11-03,Tirupati,1.0,Satisfactory,90,NO2
2016-11-04,Tirupati,1.0,Moderate,107,NO2
2016-11-06,Tirupati,1.0,Moderate,134,NO2
2016-11-08,Tirupati,1.0,Moderate,130,NO2
2016-11-09,Tirupati,1.0,Moderate,126,NO2
2016-11-10,Tirupati,1.0,Moderate,137,NO2
2016-11-11,Tirupati,1.0,Moderate,137,NO2
2016-11-12,Tirupati,1.0,Moderate,128,NO2
2016-11-13,Tirupati,1.0,Moderate,144,PM2.5
2016-11-14,Tirupati,1.0,Satisfactory,99,NO2
2016-11-15,Tirupati,1.0,Satisfactory,99,NO2
2016-11-16,Tirupati,1.0,Satisfactory,98,NO2
2016-11-17,Tirupati,1.0,Moderate,140,PM2.5
2016-11-18,Tirupati,1.0,Moderate,143,PM2.5
2016-11-19,Tirupati,1.0,Moderate,137,PM2.5
2016-11-20,Tirupati,1.0,Moderate,134,PM2.5
2016-11-21,Tirupati,1.0,Moderate,147,PM2.5
2016-11-22,Tirupati,1.0,Moderate,127,NO2
2016-11-23,Tirupati,1.0,Moderate,133,NO2
2016-11-24,Tirupati,1.0,Moderate,138,PM2.5
2016-11-25,Tirupati,1.0,Good,28,CO
2016-11-26,Tirupati,1.0,Moderate,145,PM2.5
2016-11-27,Tirupati,1.0,Moderate,128,PM2.5
2016-11-28,Tirupati,1.0,Satisfactory,97,PM2.5
2016-11-29,Tirupati,1.0,Satisfactory,91,PM2.5
2016-11-30,Tirupati,1.0,Moderate,122,PM2.5
2016-12-01,Tirupati,1.0,Moderate,143,PM2.5
2016-12-02,Tirupati,1.0,Good,34,PM10
2016-12-03,Tirupati,1.0,Satisfactory,94,NO2
2016-12-04,Tirupati,1.0,Satisfactory,94,NO2
2016-12-05,Tirupati,1.0,Satisfactory,97,NO2
2016-12-06,Tirupati,1.0,Moderate,120,PM2.5
2016-12-07,Tirupati,1.0,Moderate,111,NO2
2016-12-08,Tirupati,1.0,Moderate,121,NO2
2016-12-09,Tirupati,1.0,Moderate,142,NO2
2016-12-10,Tirupati,1.0,Moderate,146,NO2
2016-12-11,Tirupati,1.0,Moderate,144,NO2
2016-12-12,Tirupati,1.0,Moderate,108,NO2
2016-12-13,Tirupati,1.0,Satisfactory,82,NO2
2016-12-14,Tirupati,1.0,Satisfactory,97,NO2
2016-12-15,Tirupati,1.0,Satisfactory,100,NO2
2016-12-16,Tirupati,1.0,Satisfactory,97,NO2
2016-12-17,Tirupati,1.0,Moderate,118,PM2.5
2016-12-18,Tirupati,1.0,Moderate,126,PM2.5
2016-12-19,Tirupati,1.0,Moderate,128,NO2
2016-12-20,Tirupati,1.0,Moderate,132,NO2
2016-12-21,Tirupati,1.0,Moderate,137,NO2
2016-12-22,Tirupati,1.0,Moderate,132,NO2
2016-12-27,Tirupati,1.0,Moderate,138,NO2
2016-12-28,Tirupati,1.0,Moderate,116,NO2
2016-12-29,Tirupati,1.0,Moderate,136,PM2.5
2016-12-30,Tirupati,1.0,Moderate,174,PM2.5
2016-12-31,Tirupati,1.0,Moderate,152,PM2.5
2017-01-01,Tirupati,1.0,Moderate,132,NO2
2017-01-02,Tirupati,1.0,Moderate,119,NO2
2017-01-03,Tirupati,1.0,Moderate,122,NO2
2017-01-04,Tirupati,1.0,Moderate,120,NO2
2017-01-05,Tirupati,1.0,Moderate,127,NO2
2017-01-06,Tirupati,1.0,Moderate,136,NO2
2017-01-07,Tirupati,1.0,Moderate,142,NO2
2017-01-08,Tirupati,1.0,Moderate,136,NO2
2017-01-09,Tirupati,1.0,Moderate,128,NO2
2017-01-10,Tirupati,1.0,Moderate,144,NO2
2017-01-11,Tirupati,1.0,Moderate,137,NO2
2017-01-13,Tirupati,1.0,Moderate,131,NO2
2017-01-14,Tirupati,1.0,Moderate,120,NO2
2017-01-15,Tirupati,1.0,Moderate,124,NO2
2017-01-16,Tirupati,1.0,Moderate,123,NO2
2017-01-17,Tirupati,1.0,Moderate,125,NO2
2017-01-18,Tirupati,1.0,Moderate,118,NO2
2017-01-19,Tirupati,1.0,Moderate,101,NO2
2017-01-20,Tirupati,1.0,Moderate,115,PM2.5
2017-01-21,Tirupati,1.0,Moderate,106,NO2
2017-01-22,Tirupati,1.0,Moderate,102,NO2
2017-01-23,Tirupati,1.0,Moderate,112,NO2
2017-01-24,Tirupati,1.0,Moderate,109,NO2
2017-01-25,Tirupati,1.0,Satisfactory,98,NO2
2017-01-26,Tirupati,1.0,Moderate,113,NO2
2017-01-27,Tirupati,1.0,Moderate,123,NO2
2017-01-28,Tirupati,1.0,Moderate,107,NO2
2017-01-29,Tirupati,1.0,Moderate,107,NO2
2017-01-30,Tirupati,1.0,Moderate,122,NO2
2017-01-31,Tirupati,1.0,Moderate,120,NO2
2017-02-01,Tirupati,1.0,Moderate,128,NO2
2017-02-02,Tirupati,1.0,Moderate,134,NO2
2017-02-03,Tirupati,1.0,Moderate,122,NO2
2017-02-04,Tirupati,1.0,Moderate,134,NO2
2017-02-05,Tirupati,1.0,Moderate,131,NO2
2017-02-06,Tirupati,1.0,Moderate,145,NO2
2017-02-07,Tirupati,1.0,Moderate,151,NO2
2017-02-08,Tirupati,1.0,Moderate,145,NO2
2017-02-09,Tirupati,1.0,Moderate,158,NO2
2017-02-10,Tirupati,1.0,Moderate,140,NO2
2017-02-11,Tirupati,1.0,Moderate,145,NO2
2017-02-12,Tirupati,1.0,Moderate,130,NO2
2017-02-13,Tirupati,1.0,Moderate,118,NO2
2017-02-14,Tirupati,1.0,Moderate,110,NO2
2017-02-15,Tirupati,1.0,Moderate,111,NO2
2017-02-16,Tirupati,1.0,Moderate,112,NO2
2017-02-17,Tirupati,1.0,Moderate,124,NO2
2017-02-18,Tirupati,1.0,Moderate,134,NO2
2017-02-19,Tirupati,1.0,Moderate,144,NO2
2017-02-20,Tirupati,1.0,Moderate,151,NO2
2017-02-21,Tirupati,1.0,Moderate,133,NO2
2017-02-22,Tirupati,1.0,Moderate,129,NO2
2017-02-23,Tirupati,1.0,Moderate,130,NO2
2017-02-24,Tirupati,1.0,Moderate,139,NO2
2017-02-26,Tirupati,1.0,Moderate,138,NO2
2017-02-27,Tirupati,1.0,Moderate,127,NO2
2017-02-28,Tirupati,1.0,Moderate,124,NO2
2017-03-01,Tirupati,1.0,Moderate,127,NO2
2017-03-02,Tirupati,1.0,Moderate,145,NO2
2017-03-03,Tirupati,1.0,Moderate,136,NO2
2017-03-04,Tirupati,1.0,Moderate,111,NO2
2017-03-05,Tirupati,1.0,Moderate,101,NO2
2017-03-06,Tirupati,1.0,Satisfactory,98,NO2
2017-03-07,Tirupati,1.0,Moderate,105,NO2
2017-03-08,Tirupati,1.0,Satisfactory,89,NO2
2017-03-09,Tirupati,1.0,Satisfactory,91,NO2
2017-03-10,Tirupati,1.0,Satisfactory,92,NO2
2017-03-11,Tirupati,1.0,Moderate,111,NO2
2017-03-12,Tirupati,1.0,Moderate,118,NO2
2017-03-13,Tirupati,1.0,Moderate,103,NO2
2017-03-14,Tirupati,1.0,Satisfactory,98,NO2
2017-03-15,Tirupati,1.0,Satisfactory,92,NO2
2017-03-16,Tirupati,1.0,Satisfactory,96,NO2
2017-03-17,Tirupati,1.0,Satisfactory,98,NO2
2017-03-18,Tirupati,1.0,Satisfactory,97,NO2
2017-03-19,Tirupati,1.0,Satisfactory,94,NO2
2017-03-20,Tirupati,1.0,Satisfactory,90,NO2
2017-03-21,Tirupati,1.0,Satisfactory,98,NO2
2017-03-22,Tirupati,1.0,Moderate,108,NO2
2017-03-23,Tirupati,1.0,Moderate,125,NO2
2017-03-24,Tirupati,1.0,Moderate,147,NO2
2017-03-25,Tirupati,1.0,Moderate,141,NO2
2017-03-26,Tirupati,1.0,Moderate,140,NO2
2017-03-27,Tirupati,1.0,Moderate,138,NO2
2017-03-28,Tirupati,1.0,Moderate,101,NO2
2017-03-29,Tirupati,1.0,Satisfactory,99,NO2
2017-03-30,Tirupati,1.0,Satisfactory,97,NO2
2017-03-31,Tirupati,1.0,Moderate,105,NO2
2017-04-01,Tirupati,1.0,Satisfactory,92,NO2
2017-04-02,Tirupati,1.0,Satisfactory,96,NO2
2017-04-05,Tirupati,1.0,Satisfactory,87,NO2
2017-04-06,Tirupati,1.0,Satisfactory,97,NO2
2017-04-07,Tirupati,1.0,Satisfactory,80,PM10
2017-04-09,Tirupati,1.0,Moderate,107,PM10
2017-04-10,Tirupati,1.0,Satisfactory,91,PM10
2017-04-11,Tirupati,1.0,Moderate,104,PM10
2017-04-14,Tirupati,1.0,Moderate,113,NO2
2017-04-15,Tirupati,1.0,Moderate,114,NO2
2017-04-16,Tirupati,1.0,Moderate,119,PM10
2017-04-18,Tirupati,1.0,Satisfactory,100,PM10
2017-04-19,Tirupati,1.0,Moderate,107,PM10
2017-04-20,Tirupati,1.0,Moderate,101,PM10
2017-04-21,Tirupati,1.0,Satisfactory,88,PM10
2017-04-22,Tirupati,1.0,Satisfactory,86,NO2
2017-04-23,Tirupati,1.0,Satisfactory,95,PM10
2017-04-24,Tirupati,1.0,Moderate,106,PM10
2017-04-25,Tirupati,1.0,Moderate,110,PM10
2017-04-26,Tirupati,1.0,Satisfactory,80,NO2
2017-04-27,Tirupati,1.0,Satisfactory,97,PM10
2017-04-28,Tirupati,1.0,Satisfactory,97,PM10
2017-04-29,Tirupati,1.0,Satisfactory,83,NO2
2017-04-30,Tirupati,1.0,Satisfactory,84,NO2
2017-05-01,Tirupati,1.0,Satisfactory,76,NO2
2017-05-02,Tirupati,1.0,Satisfactory,79,PM10
2017-05-03,Tirupati,1.0,Satisfactory,65,PM10
2017-05-04,Tirupati,1.0,Satisfactory,62,PM10
2017-05-05,Tirupati,1.0,Satisfactory,65,PM10
2017-05-07,Tirupati,1.0,Satisfactory,65,PM10
2017-05-08,Tirupati,1.0,Satisfactory,63,NO2
2017-05-09,Tirupati,1.0,Satisfactory,66,PM10
2017-05-10,Tirupati,1.0,Satisfactory,58,NO2
2017-05-11,Tirupati,1.0,Satisfactory,77,PM10
2017-05-12,Tirupati,1.0,Satisfactory,53,PM10
2017-05-13,Tirupati,1.0,Satisfactory,54,NO2
2017-05-20,Tirupati,1.0,Satisfactory,70,PM10
2017-05-21,Tirupati,1.0,Satisfactory,63,PM10
2017-05-22,Tirupati,1.0,Satisfactory,72,PM10
2017-05-23,Tirupati,1.0,Satisfactory,71,PM10
2017-05-25,Tirupati,1.0,Satisfactory,86,PM10
2017-05-26,Tirupati,1.0,Satisfactory,86,PM10
2017-05-27,Tirupati,1.0,Satisfactory,62,PM10
2017-05-28,Tirupati,1.0,Satisfactory,65,PM10
2017-05-31,Tirupati,1.0,Satisfactory,61,PM10
2017-06-03,Tirupati,1.0,Good,49,NO2
2017-06-04,Tirupati,1.0,Good,47,NO2
2017-06-05,Tirupati,1.0,Good,47,NO2
2017-06-06,Tirupati,1.0,Satisfactory,54,PM10
2017-06-07,Tirupati,1.0,Good,37,NO2
2017-06-08,Tirupati,1.0,Good,38,NO2
2017-06-09,Tirupati,1.0,Good,39,NO2
2017-06-10,Tirupati,1.0,Good,43,NO2
2017-06-11,Tirupati,1.0,Good,39,NO2
2017-06-12,Tirupati,1.0,Good,41,NO2
2017-06-13,Tirupati,1.0,Good,42,NO2
2017-06-14,Tirupati,1.0,Good,43,NO2
2017-06-15,Tirupati,1.0,Good,45,NO2
2017-06-16,Tirupati,1.0,Good,43,NO2
2017-06-17,Tirupati,1.0,Good,42,NO2
2017-06-19,Tirupati,1.0,Good,48,NO2
2017-06-20,Tirupati,1.0,Good,42,NO2
2017-06-21,Tirupati,1.0,Good,41,NO2
2017-06-22,Tirupati,1.0,Good,43,NO2
2017-06-23,Tirupati,1.0,Good,44,NO2
2017-06-24,Tirupati,1.0,Good,41,NO2
2017-06-25,Tirupati,1.0,Good,41,NO2
2017-06-26,Tirupati,1.0,Good,42,NO2
2017-06-27,Tirupati,1.0,Satisfactory,53,PM10
2017-06-28,Tirupati,1.0,Satisfactory,51,PM10
2017-06-29,Tirupati,1.0,Good,42,PM10
2017-06-30,Tirupati,1.0,Satisfactory,57,PM10
2017-07-01,Tirupati,1.0,Satisfactory,60,PM10
2017-07-11,Tirupati,1.0,Good,45,NO2
2017-07-12,Tirupati,1.0,Good,40,NO2
2017-07-13,Tirupati,1.0,Good,40,PM10
2017-07-14,Tirupati,1.0,Good,39,NO2
2017-07-18,Tirupati,1.0,Good,49,PM10
2017-07-19,Tirupati,1.0,Good,34,PM10
2017-07-20,Tirupati,1.0,Good,36,NO2
2017-08-03,Tirupati,1.0,Satisfactory,56,PM10
2017-08-04,Tirupati,1.0,Good,40,PM10
2017-08-05,Tirupati,1.0,Good,35,NO2
2017-08-06,Tirupati,1.0,Good,50,PM10
2017-08-07,Tirupati,1.0,Satisfactory,62,PM10
2017-08-08,Tirupati,1.0,Satisfactory,52,PM10
2017-08-09,Tirupati,1.0,Satisfactory,70,PM10
2017-08-10,Tirupati,1.0,Good,42,NO2
2017-08-11,Tirupati,1.0,Good,48,PM10
2017-08-12,Tirupati,1.0,Satisfactory,62,NO2
2017-08-13,Tirupati,1.0,Satisfactory,98,NO2
2017-08-14,Tirupati,1.0,Moderate,125,NO2
2017-08-15,Tirupati,1.0,Satisfactory,96,NO2
2017-08-16,Tirupati,1.0,Satisfactory,92,NO2
2017-08-17,Tirupati,1.0,Satisfactory,95,NO2
2017-08-18,Tirupati,1.0,Satisfactory,99,NO2
2017-08-19,Tirupati,1.0,Satisfactory,89,NO2
2017-08-20,Tirupati,1.0,Satisfactory,86,NO2
2017-08-21,Tirupati,1.0,Satisfactory,89,NO2
2017-08-22,Tirupati,1.0,Satisfactory,87,NO2
2017-08-23,Tirupati,1.0,Satisfactory,87,NO2
2017-08-29,Tirupati,1.0,Satisfactory,84,NO2
2017-08-30,Tirupati,1.0,Satisfactory,79,NO2
2017-08-31,Tirupati,1.0,Moderate,101,NO2
2017-09-01,Tirupati,1.0,Moderate,109,NO2
2017-09-02,Tirupati,1.0,Good,49,PM10
2017-09-03,Tirupati,1.0,Moderate,114,NO2
2017-09-04,Tirupati,1.0,Moderate,104,NO2
2017-09-05,Tirupati,1.0,Satisfactory,98,NO2
2017-09-08,Tirupati,1.0,Satisfactory,91,NO2
2017-09-09,Tirupati,1.0,Moderate,103,NO2
2017-09-10,Tirupati,1.0,Moderate,117,NO2
2017-09-11,Tirupati,1.0,Moderate,114,NO2
2017-09-12,Tirupati,1.0,Satisfactory,93,NO2
2017-09-13,Tirupati,1.0,Satisfactory,89,NO2
2017-09-14,Tirupati,1.0,Satisfactory,82,NO2
2017-09-15,Tirupati,1.0,Satisfactory,95,NO2
2017-09-16,Tirupati,1.0,Satisfactory,94,NO2
2017-09-17,Tirupati,1.0,Satisfactory,86,NO2
2017-09-18,Tirupati,1.0,Satisfactory,82,NO2
2017-09-19,Tirupati,1.0,Satisfactory,68,NO2
2017-09-20,Tirupati,1.0,Satisfactory,78,NO2
2017-09-21,Tirupati,1.0,Satisfactory,95,NO2
2017-09-22,Tirupati,1.0,Satisfactory,99,NO2
2017-09-23,Tirupati,1.0,Satisfactory,100,NO2
2017-09-24,Tirupati,1.0,Moderate,102,NO2
2017-09-25,Tirupati,1.0,Satisfactory,94,NO2
2017-09-26,Tirupati,1.0,Moderate,101,NO2
2017-09-27,Tirupati,1.0,Moderate,101,NO2
2017-09-28,Tirupati,1.0,Satisfactory,100,NO2
2017-09-29,Tirupati,1.0,Satisfactory,88,NO2
2017-09-30,Tirupati,1.0,Moderate,105,NO2
2017-10-01,Tirupati,1.0,Moderate,114,NO2
2017-10-02,Tirupati,1.0,Moderate,112,NO2
2017-10-03,Tirupati,1.0,Moderate,107,NO2
2017-10-04,Tirupati,1.0,Satisfactory,93,NO2
2017-10-05,Tirupati,1.0,Moderate,105,NO2
2017-10-06,Tirupati,1.0,Satisfactory,91,NO2
2017-10-07,Tirupati,1.0,Satisfactory,91,NO2
2017-10-08,Tirupati,1.0,Satisfactory,77,NO2
2017-10-09,Tirupati,1.0,Satisfactory,86,NO2
2017-10-10,Tirupati,1.0,Good,41,PM10
2017-10-11,Tirupati,1.0,Satisfactory,63,PM10
2017-10-12,Tirupati,1.0,Satisfactory,66,PM10
2017-10-13,Tirupati,1.0,Satisfactory,88,NO2
2017-10-15,Tirupati,1.0,Satisfactory,86,NO2
2017-10-16,Tirupati,1.0,Satisfactory,82,NO2
2017-10-17,Tirupati,1.0,Satisfactory,95,NO2
2017-10-18,Tirupati,1.0,Satisfactory,99,NO2
2017-10-19,Tirupati,1.0,Satisfactory,94,NO2
2017-10-20,Tirupati,1.0,Satisfactory,94,NO2
2017-10-21,Tirupati,1.0,Satisfactory,96,PM10
2017-10-22,Tirupati,1.0,Moderate,118,NO2
2017-10-23,Tirupati,1.0,Moderate,113,NO2
2017-10-24,Tirupati,1.0,Moderate,106,NO2
2017-10-25,Tirupati,1.0,Moderate,130,PM2.5
2017-10-26,Tirupati,1.0,Satisfactory,84,NO2
2017-10-27,Tirupati,1.0,Satisfactory,92,NO2
2017-10-28,Tirupati,1.0,Satisfactory,86,NO2
2017-10-29,Tirupati,1.0,Satisfactory,96,NO2
2017-10-30,Tirupati,1.0,Satisfactory,84,NO2
2017-10-31,Tirupati,1.0,Satisfactory,82,NO2
2017-11-01,Tirupati,1.0,Satisfactory,87,NO2
2017-11-02,Tirupati,1.0,Satisfactory,86,NO2
2017-11-03,Tirupati,1.0,Moderate,106,NO2
2017-11-04,Tirupati,1.0,Satisfactory,65,PM10
2017-11-05,Tirupati,1.0,Satisfactory,83,NO2
2017-11-06,Tirupati,1.0,Satisfactory,84,NO2
2017-11-07,Tirupati,1.0,Satisfactory,77,NO2
2017-11-08,Tirupati,1.0,Satisfactory,85,NO2
2017-11-09,Tirupati,1.0,Moderate,102,NO2
2017-11-10,Tirupati,1.0,Satisfactory,93,NO2
2017-11-11,Tirupati,1.0,Moderate,112,NO2
2017-11-12,Tirupati,1.0,Moderate,133,NO2
2017-11-13,Tirupati,1.0,Moderate,126,NO2
2017-11-14,Tirupati,1.0,Moderate,109,NO2
2017-11-15,Tirupati,1.0,Moderate,118,NO2
2017-11-16,Tirupati,1.0,Moderate,108,NO2
2017-11-17,Tirupati,1.0,Satisfactory,70,NO2
2017-11-18,Tirupati,1.0,Satisfactory,67,PM10
2017-11-19,Tirupati,1.0,Satisfactory,99,NO2
2017-11-20,Tirupati,1.0,Satisfactory,91,NO2
2017-11-21,Tirupati,1.0,Satisfactory,82,NO2
2017-11-22,Tirupati,1.0,Satisfactory,87,NO2
2017-11-23,Tirupati,1.0,Moderate,123,NO2
2017-11-24,Tirupati,1.0,Moderate,134,NO2
2017-11-25,Tirupati,1.0,Moderate,139,PM2.5
2017-11-26,Tirupati,1.0,Moderate,137,PM2.5
2017-11-27,Tirupati,1.0,Satisfactory,75,PM10
2017-11-28,Tirupati,1.0,Moderate,124,NO2
2017-11-29,Tirupati,1.0,Moderate,108,NO2
2017-11-30,Tirupati,1.0,Satisfactory,98,NO2
2017-12-01,Tirupati,1.0,Satisfactory,80,NO2
2017-12-02,Tirupati,1.0,Satisfactory,85,NO2
2017-12-03,Tirupati,1.0,Moderate,105,NO2
2017-12-04,Tirupati,1.0,Moderate,116,NO2
2017-12-05,Tirupati,1.0,Moderate,111,NO2
2017-12-06,Tirupati,1.0,Satisfactory,95,NO2
2017-12-07,Tirupati,1.0,Moderate,160,NO2
2017-12-08,Tirupati,1.0,Moderate,167,PM2.5
2017-12-09,Tirupati,1.0,Moderate,166,PM2.5
2017-12-10,Tirupati,1.0,Moderate,123,PM2.5
2017-12-11,Tirupati,1.0,Moderate,110,NO2
2017-12-12,Tirupati,1.0,Moderate,134,PM2.5
2017-12-13,Tirupati,1.0,Poor,205,PM2.5
2017-12-14,Tirupati,1.0,Satisfactory,61,PM2.5
2017-12-15,Tirupati,1.0,Satisfactory,69,PM2.5
2017-12-16,Tirupati,1.0,Satisfactory,80,PM2.5
2017-12-17,Tirupati,1.0,Satisfactory,89,PM2.5
2017-12-18,Tirupati,1.0,Moderate,119,PM2.5
2017-12-19,Tirupati,1.0,Moderate,105,PM2.5
2017-12-20,Tirupati,1.0,Satisfactory,94,PM2.5
2017-12-21,Tirupati,1.0,Satisfactory,87,PM2.5
2017-12-22,Tirupati,1.0,Satisfactory,72,PM10
2017-12-23,Tirupati,1.0,Satisfactory,83,PM2.5
2017-12-24,Tirupati,1.0,Moderate,108,PM2.5
2017-12-25,Tirupati,1.0,Moderate,114,PM2.5
2017-12-26,Tirupati,1.0,Moderate,137,PM2.5
2017-12-27,Tirupati,1.0,Moderate,184,PM2.5
2017-12-28,Tirupati,1.0,Moderate,140,PM2.5
2017-12-29,Tirupati,1.0,Satisfactory,81,PM10
2017-12-30,Tirupati,1.0,Satisfactory,98,PM2.5
2017-12-31,Tirupati,1.0,Satisfactory,70,NO2
2018-01-02,Tirupati,1.0,Satisfactory,84,NO2
2018-01-03,Tirupati,1.0,Satisfactory,66,NO2
2018-01-04,Tirupati,1.0,Moderate,112,PM2.5
2018-01-05,Tirupati,1.0,Moderate,131,PM2.5
2018-01-06,Tirupati,1.0,Moderate,126,PM2.5
2018-01-07,Tirupati,1.0,Moderate,108,PM2.5
2018-01-08,Tirupati,1.0,Satisfactory,97,PM2.5
2018-01-09,Tirupati,1.0,Moderate,107,PM10
2018-01-10,Tirupati,1.0,Moderate,105,PM10
2018-01-11,Tirupati,1.0,Moderate,115,PM2.5
2018-01-12,Tirupati,1.0,Moderate,126,PM2.5
2018-01-13,Tirupati,1.0,Moderate,110,PM2.5
2018-01-14,Tirupati,1.0,Poor,230,PM2.5
2018-01-15,Tirupati,1.0,Moderate,117,PM2.5
2018-01-16,Tirupati,1.0,Moderate,114,PM2.5
2018-01-17,Tirupati,1.0,Moderate,108,PM2.5
2018-01-18,Tirupati,1.0,Satisfactory,78,NO2
2018-01-19,Tirupati,1.0,Satisfactory,80,NO2
2018-01-20,Tirupati,1.0,Satisfactory,91,PM2.5
2018-01-21,Tirupati,1.0,Moderate,142,PM2.5
2018-01-22,Tirupati,1.0,Moderate,134,PM2.5
2018-01-23,Tirupati,1.0,Satisfactory,82,PM2.5
2018-01-24,Tirupati,1.0,Moderate,102,PM2.5
2018-01-25,Tirupati,1.0,Moderate,139,PM2.5
2018-01-26,Tirupati,1.0,Moderate,122,PM2.5
2018-01-27,Tirupati,1.0,Moderate,149,PM2.5
2018-01-28,Tirupati,1.0,Moderate,104,PM2.5
2018-02-02,Tirupati,1.0,Moderate,106,NO2
2018-02-03,Tirupati,1.0,Satisfactory,92,NO2
2018-02-04,Tirupati,1.0,Satisfactory,96,NO2
2018-02-05,Tirupati,1.0,Satisfactory,83,NO2
2018-02-06,Tirupati,1.0,Satisfactory,82,NO2
2018-02-07,Tirupati,1.0,Satisfactory,58,PM10
2018-02-08,Tirupati,1.0,Satisfactory,65,NO2
2018-02-09,Tirupati,1.0,Satisfactory,97,NO2
2018-02-10,Tirupati,1.0,Satisfactory,67,NO2
2018-02-11,Tirupati,1.0,Satisfactory,82,PM2.5
2018-02-12,Tirupati,1.0,Satisfactory,77,PM2.5
2018-02-13,Tirupati,1.0,Poor,259,NO2
2018-02-14,Tirupati,1.0,Very Poor,306,NO2
2018-02-15,Tirupati,1.0,Poor,219,NO2
2018-02-16,Tirupati,1.0,Satisfactory,76,NO2
2018-02-17,Tirupati,1.0,Satisfactory,98,NO2
2018-02-18,Tirupati,1.0,Moderate,105,NO2
2018-02-19,Tirupati,1.0,Satisfactory,94,NO2
2018-02-20,Tirupati,1.0,Satisfactory,86,NO2
2018-02-21,Tirupati,1.0,Satisfactory,91,PM10
2018-02-22,Tirupati,1.0,Satisfactory,91,NO2
2018-02-23,Tirupati,1.0,Satisfactory,83,PM10
2018-02-24,Tirupati,1.0,Satisfactory,79,NO2
2018-02-25,Tirupati,1.0,Satisfactory,66,NO2
2018-02-26,Tirupati,1.0,Satisfactory,69,NO2
2018-02-27,Tirupati,1.0,Satisfactory,83,NO2
2018-02-28,Tirupati,1.0,Satisfactory,82,NO2
2018-03-01,Tirupati,1.0,Satisfactory,88,NO2
2018-03-02,Tirupati,1.0,Moderate,114,NO2
2018-03-03,Tirupati,1.0,Moderate,105,NO2
2018-03-04,Tirupati,1.0,Moderate,109,NO2
2018-03-05,Tirupati,1.0,Moderate,105,NO2
2018-03-06,Tirupati,1.0,Satisfactory,87,NO2
2018-03-07,Tirupati,1.0,Satisfactory,81,NO2
2018-03-08,Tirupati,1.0,Satisfactory,96,NO2
2018-03-09,Tirupati,1.0,Satisfactory,95,NO2
2018-03-10,Tirupati,1.0,Moderate,105,NO2
2018-03-11,Tirupati,1.0,Moderate,100,NO2
2018-03-12,Tirupati,1.0,Satisfactory,81,NO2
2018-03-13,Tirupati,1.0,Satisfactory,53,NO2
2018-03-14,Tirupati,1.0,Satisfactory,68,PM10
2018-03-15,Tirupati,1.0,Satisfactory,57,PM10
2018-03-16,Tirupati,1.0,Satisfactory,53,PM10
2018-03-17,Tirupati,1.0,Satisfactory,55,NO2
2018-03-19,Tirupati,1.0,Satisfactory,72,PM2.5
2018-03-20,Tirupati,1.0,Satisfactory,87,NO2
2018-03-21,Tirupati,1.0,Satisfactory,71,PM2.5
2018-03-22,Tirupati,1.0,Moderate,107,PM2.5
2018-03-23,Tirupati,1.0,Moderate,102,PM10
2018-03-24,Tirupati,1.0,Moderate,116,PM10
2018-03-25,Tirupati,1.0,Satisfactory,97,PM10
2018-03-26,Tirupati,1.0,Satisfactory,99,NO2
2018-03-27,Tirupati,1.0,Satisfactory,83,PM10
2018-03-28,Tirupati,1.0,Satisfactory,77,PM10
2018-03-29,Tirupati,1.0,Satisfactory,84,PM10
2018-03-30,Tirupati,1.0,Satisfactory,87,PM10
2018-03-31,Tirupati,1.0,Satisfactory,87,PM10
2018-04-01,Tirupati,1.0,Moderate,103,PM10
2018-04-02,Tirupati,1.0,Satisfactory,93,PM10
2018-04-03,Tirupati,1.0,Satisfactory,91,PM10
2018-04-04,Tirupati,1.0,Satisfactory,94,PM10
2018-04-05,Tirupati,1.0,Satisfactory,90,PM10
2018-04-06,Tirupati,1.0,Satisfactory,82,PM10
2018-04-07,Tirupati,1.0,Satisfactory,88,PM10
2018-04-08,Tirupati,1.0,Satisfactory,66,PM10
2018-04-09,Tirupati,1.0,Satisfactory,65,PM10
2018-04-10,Tirupati,1.0,Satisfactory,74,PM10
2018-04-11,Tirupati,1.0,Satisfactory,60,PM10
2018-04-12,Tirupati,1.0,Satisfactory,56,PM10
2018-04-13,Tirupati,1.0,Satisfactory,51,PM10
2018-04-14,Tirupati,1.0,Satisfactory,50,PM10
2018-04-15,Tirupati,1.0,Satisfactory,52,CO